• In Hungary
  • List of Countries
  • For 7 days
  • Water Temperature
  • Satellite Maps
  • Weather Map
  • News
  • Weather Widgets
  • user-avatar
    Login

    Hourly Weather Horodkivka

    Today, 12 December, Tuesday

    Time Temperature Precipitation Wind Pressure Humidity
    00:00 +5°C° 0 mm 7 mps 729 mmHg 76%
    01:00 +5°C° 0 mm 7 mps 729 mmHg 76%
    02:00 +5°C° 0 mm 4 mps 728 mmHg 83%
    03:00 +5°C° 0 mm 4 mps 729 mmHg 82%
    04:00 +5°C° 0 mm 5 mps 729 mmHg 81%
    05:00 +5°C° 0 mm 5 mps 729 mmHg 80%
    06:00 +5°C° 0 mm 6 mps 729 mmHg 79%
    07:00 +5°C° 0 mm 6 mps 730 mmHg 77%
    08:00 +6°C° 0 mm 4 mps 729 mmHg 83%
    09:00 +7°C° 0 mm 5 mps 730 mmHg 79%
    10:00 +8°C° 0 mm 6 mps 730 mmHg 76%
    11:00 +9°C° 0 mm 7 mps 731 mmHg 73%
    12:00 +10°C° 0 mm 7 mps 731 mmHg 72%
    13:00 +10°C° 0 mm 8 mps 732 mmHg 71%
    14:00 +10°C° 0 mm 8 mps 732 mmHg 70%
    15:00 +10°C° 0 mm 8 mps 733 mmHg 72%
    16:00 +9°C° 0 mm 7 mps 733 mmHg 75%
    17:00 +9°C° 0 mm 7 mps 733 mmHg 77%
    18:00 +9°C° 0 mm 6 mps 734 mmHg 79%
    19:00 +8°C° 0 mm 6 mps 734 mmHg 80%
    20:00 +8°C° 0 mm 5 mps 735 mmHg 82%
    21:00 +8°C° 0.2 mm 4 mps 735 mmHg 84%
    22:00 +7°C° 0.2 mm 4 mps 736 mmHg 86%
    23:00 +8°C° 0.2 mm 3 mps 736 mmHg 88%

    Tomorrow, 13 December, Wednesday

    Time Temperature Precipitation Wind Pressure Humidity
    00:00 +7°C° 0.6 mm 3 mps 737 mmHg 86%
    01:00 +5°C° 0.6 mm 3 mps 737 mmHg 85%
    02:00 +5°C° 0.6 mm 3 mps 737 mmHg 83%
    03:00 +4°C° 0.9 mm 3 mps 738 mmHg 83%
    04:00 +3°C° 0.9 mm 3 mps 738 mmHg 83%
    05:00 +3°C° 0.9 mm 3 mps 738 mmHg 83%
    06:00 +2°C° 1.2 mm 3 mps 738 mmHg 86%
    07:00 +3°C° 1.2 mm 2 mps 739 mmHg 89%
    08:00 +2°C° 1.2 mm 2 mps 739 mmHg 92%
    09:00 +2°C° 1.1 mm 2 mps 739 mmHg 93%
    10:00 +2°C° 1.1 mm 2 mps 739 mmHg 95%
    11:00 +3°C° 1.1 mm 1 mps 740 mmHg 96%
    12:00 +3°C° 0.6 mm 1 mps 739 mmHg 96%
    13:00 +3°C° 0.6 mm 1 mps 739 mmHg 97%
    14:00 +3°C° 0.6 mm 1 mps 739 mmHg 97%
    15:00 +2°C° 0.2 mm 1 mps 739 mmHg 97%
    16:00 +2°C° 0.2 mm 1 mps 738 mmHg 98%
    17:00 +2°C° 0.2 mm 1 mps 738 mmHg 98%
    18:00 +2°C° 0 mm 1 mps 738 mmHg 97%
    19:00 +2°C° 0 mm 1 mps 738 mmHg 97%
    20:00 +2°C° 0 mm 1 mps 737 mmHg 97%
    21:00 +2°C° 0 mm 1 mps 737 mmHg 97%
    22:00 +1°C° 0 mm 1 mps 736 mmHg 97%
    23:00 +1°C° 0 mm 1 mps 736 mmHg 96%

    Day after tomorrow, 14 December, Thursday

    Time Temperature Precipitation Wind Pressure Humidity
    00:00 +1°C° 0 mm 1 mps 736 mmHg 96%
    01:00 -1°C° 0 mm 2 mps 735 mmHg 95%
    02:00 -2°C° 0 mm 2 mps 735 mmHg 95%
    03:00 -2°C° 0 mm 2 mps 734 mmHg 93%
    04:00 -2°C° 0 mm 3 mps 734 mmHg 91%
    05:00 -2°C° 0 mm 3 mps 733 mmHg 89%
    06:00 -2°C° 0 mm 4 mps 733 mmHg 87%
    07:00 -2°C° 0 mm 4 mps 733 mmHg 84%
    08:00 -2°C° 0 mm 5 mps 732 mmHg 81%
    09:00 -1°C° 0 mm 5 mps 732 mmHg 81%
    10:00 -1°C° 0 mm 6 mps 732 mmHg 80%
    11:00 +1°C° 0 mm 6 mps 731 mmHg 80%
    12:00 0°C° 0 mm 7 mps 731 mmHg 80%
    13:00 +2°C° 0 mm 7 mps 731 mmHg 80%
    14:00 +2°C° 0 mm 7 mps 731 mmHg 80%
    15:00 +2°C° 0 mm 6 mps 731 mmHg 80%
    16:00 +2°C° 0 mm 6 mps 731 mmHg 81%
    17:00 +2°C° 0 mm 6 mps 732 mmHg 81%
    18:00 +1°C° 0 mm 6 mps 731 mmHg 81%
    19:00 +1°C° 0 mm 6 mps 731 mmHg 81%
    20:00 +1°C° 0 mm 5 mps 731 mmHg 82%
    21:00 +2°C° 0.1 mm 5 mps 731 mmHg 82%
    22:00 +2°C° 0.1 mm 5 mps 732 mmHg 82%
    23:00 +2°C° 0.1 mm 5 mps 732 mmHg 82%

    15 December, Friday

    Time Temperature Precipitation Wind Pressure Humidity
    00:00 +2°C° 0 mm 5 mps 731 mmHg 82%
    01:00 +2°C° 0 mm 5 mps 730 mmHg 82%
    02:00 +2°C° 0 mm 5 mps 729 mmHg 82%
    03:00 +2°C° 0 mm 5 mps 729 mmHg 82%
    04:00 +2°C° 0 mm 6 mps 728 mmHg 82%
    05:00 +2°C° 0 mm 6 mps 727 mmHg 81%
    06:00 +2°C° 0.1 mm 6 mps 727 mmHg 83%
    07:00 +2°C° 0.1 mm 5 mps 726 mmHg 84%
    08:00 +2°C° 0.1 mm 5 mps 726 mmHg 85%
    09:00 +3°C° 0.2 mm 5 mps 726 mmHg 85%
    10:00 +3°C° 0.2 mm 5 mps 726 mmHg 85%
    11:00 +5°C° 0.2 mm 5 mps 726 mmHg 84%
    12:00 +5°C° 0.7 mm 4 mps 726 mmHg 86%
    13:00 +5°C° 0.7 mm 4 mps 727 mmHg 87%
    14:00 +5°C° 0.7 mm 4 mps 727 mmHg 88%
    15:00 +4°C° 0.3 mm 3 mps 727 mmHg 87%
    16:00 +4°C° 0.3 mm 3 mps 728 mmHg 86%
    17:00 +4°C° 0.3 mm 2 mps 729 mmHg 84%
    18:00 +4°C° 0 mm 2 mps 729 mmHg 83%
    19:00 +3°C° 0 mm 2 mps 729 mmHg 82%
    20:00 +2°C° 0 mm 2 mps 729 mmHg 81%
    21:00 +3°C° 0.3 mm 1 mps 729 mmHg 81%
    22:00 +3°C° 0.3 mm 1 mps 730 mmHg 81%
    23:00 +3°C° 0.3 mm 1 mps 730 mmHg 81%

    16 December, Saturday

    Time Temperature Precipitation Wind Pressure Humidity
    00:00 +3°C° 0.8 mm 1 mps 730 mmHg 83%
    01:00 +2°C° 0.8 mm 1 mps 730 mmHg 85%
    02:00 +2°C° 0.8 mm 1 mps 729 mmHg 87%
    03:00 +2°C° 0.6 mm 1 mps 729 mmHg 90%
    04:00 +2°C° 0.6 mm 1 mps 729 mmHg 92%
    05:00 +2°C° 0.6 mm 1 mps 729 mmHg 94%
    06:00 +1°C° 0.5 mm 1 mps 729 mmHg 94%
    07:00 +1°C° 0.5 mm 1 mps 730 mmHg 95%
    08:00 +1°C° 0.5 mm 1 mps 730 mmHg 95%
    09:00 +2°C° 0.6 mm 1 mps 730 mmHg 96%
    10:00 +2°C° 0.6 mm 1 mps 730 mmHg 96%
    11:00 +2°C° 0.6 mm 1 mps 731 mmHg 96%
    12:00 +2°C° 0.4 mm 1 mps 731 mmHg 96%
    13:00 +2°C° 0.4 mm 1 mps 731 mmHg 96%
    14:00 +2°C° 0.4 mm 1 mps 731 mmHg 95%
    15:00 +2°C° 0.1 mm 1 mps 732 mmHg 95%
    16:00 +2°C° 0.1 mm 1 mps 732 mmHg 95%
    17:00 +1°C° 0.1 mm 1 mps 732 mmHg 94%
    18:00 +1°C° 0 mm 1 mps 733 mmHg 93%
    19:00 0°C° 0 mm 1 mps 734 mmHg 93%
    20:00 0°C° 0 mm 1 mps 734 mmHg 92%
    21:00 -1°C° 0 mm 1 mps 735 mmHg 91%
    22:00 -1°C° 0 mm 1 mps 735 mmHg 89%
    23:00 -1°C° 0 mm 1 mps 735 mmHg 88%

    17 December, Sunday

    Time Temperature Precipitation Wind Pressure Humidity
    00:00 -1°C° 0 mm 1 mps 735 mmHg 87%
    01:00 -1°C° 0 mm 1 mps 736 mmHg 87%
    02:00 -1°C° 0 mm 1 mps 736 mmHg 86%
    03:00 -1°C° 0 mm 1 mps 736 mmHg 87%
    04:00 -1°C° 0 mm 1 mps 736 mmHg 88%
    05:00 -1°C° 0 mm 1 mps 736 mmHg 89%
    06:00 -1°C° 0 mm 1 mps 737 mmHg 90%
    07:00 -1°C° 0 mm 1 mps 737 mmHg 91%
    08:00 -1°C° 0 mm 1 mps 737 mmHg 92%
    09:00 0°C° 0 mm 1 mps 738 mmHg 92%
    10:00 +1°C° 0 mm 1 mps 738 mmHg 92%
    11:00 -1°C° 0 mm 2 mps 738 mmHg 91%
    12:00 -1°C° 0 mm 2 mps 738 mmHg 90%
    13:00 +1°C° 0 mm 2 mps 738 mmHg 90%
    14:00 0°C° 0 mm 3 mps 738 mmHg 89%
    15:00 -1°C° 0 mm 2 mps 738 mmHg 89%
    16:00 -1°C° 0 mm 2 mps 738 mmHg 89%
    17:00 -1°C° 0 mm 2 mps 739 mmHg 90%
    18:00 -2°C° 0 mm 2 mps 739 mmHg 89%
    19:00 -2°C° 0 mm 2 mps 740 mmHg 89%
    20:00 -2°C° 0 mm 2 mps 740 mmHg 88%
    21:00 -2°C° 0 mm 2 mps 740 mmHg 88%
    22:00 -2°C° 0 mm 2 mps 741 mmHg 88%
    23:00 -3°C° 0 mm 2 mps 741 mmHg 88%
    Show more